sat.trackr.live / text

‹ back to catalog

STARLINK-3189

NORAD 51464 · 2022-010J

PAYLOAD ACTIVE UNKNOWN

§ Identity

Operator
Country
US
Launch date
2022-02-03
Launch site
AFETR
Launch vehicle
Mass (kg)
RCS (m²)

Purposes: comms

External: N2YO · Heavens-Above · Gunter

§ Orbital elements

Epoch: 2026-09-20T03:59:14.052768Z

Period
93.85 min
Inclination
53.1606°
Eccentricity
0.0001283
Mean motion
15.34380259 rev/d
Perigee alt
461.9 km
Apogee alt
463.6 km
Semi-major
6,840.9 km
B*
-1.9660e-5
RAAN
117.6386°
Arg perigee
95.4173°
Mean anomaly
264.6976°
Rev number
25,679

§ Raw data

STARLINK-31891 51464U 22010J   26263.16613487 -.00001040  00000+0 -19660-4 0  99922 51464  53.1606 117.6386 0001283  95.4173 264.6976 15.34380259256797

JSON: /api/v1/satellites/51464 · /tle

For live sub-satellite position, see the globe view (requires WebGL).

§ Visibility from observer

Set your observer location to see the next 7 days of passes ≥ 10°. The values pass through the URL so the page stays shareable.

No JS? Fill the form by hand. The geolocation button needs JavaScript.